Weather History for KDUG - December, 2012

Change the Weather History Date:

Sunday, December 9, 2012

  Actual Average Record
Temperature  
Mean Temperature 50 °F 46 °F  
Max Temperature 68 °F 63 °F 78 °F (1996)
Min Temperature 31 °F 30 °F 1 °F (1978)
Degree Days  
Heating Degree Days 15 19  
Month to date heating degree days 104 160  
Since 1 July heating degree days 400 595  
Cooling Degree Days 0 0  
Month to date cooling degree days 0 0  
Year to date cooling degree days 2056 1813  
Moisture  
Dew Point 21 °F    
Average Humidity 37    
Maximum Humidity 59    
Minimum Humidity 15    
Precipitation  
Precipitation 0.00 in 0.03 in 0.65 in (1965)
Month to date precipitation 0.00 0.28  
Year to date precipitation 7.20 12.41  
Snow  
Snow 0.00 in - - ()
Month to date snowfall 0.0  
Snow Depth 0.00 in    
Sea Level Pressure  
Sea Level Pressure 29.95 in    
Wind  
Wind Speed 8 mph (NW)    
Max Wind Speed 25 mph    
Max Gust Speed 31 mph    
Visibility 10 miles    
Events      
T = Trace of Precipitation, MM = Missing Value Source: NWS Daily Summary

Daily Weather History Graph

Daily Weather History Graph

Search for Another Location

Airport or City:

Trip Planner

Search our weather history database for the weather conditions in past years. The results will help you decide how hot, cold, wet, or windy it might be!

Date:

Astronomy

Dec. 09, 2012 Rise Set
Actual Time 7:06 AM MST 5:15 PM MST
Civil Twilight 6:39 AM MST 5:42 PM MST
Nautical Twilight 6:09 AM MST 6:12 PM MST
Astronomical Twilight 5:39 AM MST 6:42 PM MST
Moon 2:54 AM MST (12/9) 2:15 PM MST (12/9)
Length of Visible Light 11h 02m
Length of Day
10h 09m
Waning Crescent, 18% of the Moon is Illuminated
Dec 9
Waning Crescent
Dec 13
New
Dec 19
First Quarter
Dec 28
Full
Jan 4
Last Quarter

Hourly Weather History & Observations

Time (MST) Temp. Windchill Dew Point Humidity Pressure Visibility Wind Dir Wind Speed Gust Speed Precip Events Conditions
12:56 AM 39.0 °F 36.8 °F 21.9 °F 50% 29.92 in 10.0 mi East 3.5 mph - N/A   Clear
1:56 AM 39.9 °F 35.8 °F 24.1 °F 53% 29.91 in 10.0 mi NE 5.8 mph - N/A   Clear
2:56 AM 37.0 °F 33.3 °F 21.9 °F 54% 29.91 in 10.0 mi SSW 4.6 mph - N/A   Clear
3:56 AM 34.0 °F 31.0 °F 19.9 °F 56% 29.92 in 10.0 mi North 3.5 mph - N/A   Clear
4:56 AM 35.1 °F - 21.9 °F 59% 29.93 in 10.0 mi Calm Calm - N/A   Clear
5:56 AM 32.0 °F - 19.0 °F 59% 29.96 in 10.0 mi Calm Calm - N/A   Clear
6:56 AM 35.1 °F 32.2 °F 21.9 °F 59% 29.96 in 10.0 mi ENE 3.5 mph - N/A   Clear
7:56 AM 36.0 °F - 21.9 °F 57% 29.98 in 10.0 mi Calm Calm - N/A   Clear
8:56 AM 46.0 °F - 26.1 °F 46% 29.97 in 10.0 mi Calm Calm - N/A   Clear
9:56 AM 55.0 °F - 30.9 °F 40% 29.97 in 10.0 mi South 4.6 mph - N/A   Clear
10:56 AM 60.1 °F - 33.1 °F 36% 29.95 in 10.0 mi Calm Calm - N/A   Clear
11:56 AM 64.0 °F - 28.9 °F 27% 29.91 in 10.0 mi West 16.1 mph - N/A   Clear
12:56 PM 64.9 °F - 28.9 °F 26% 29.89 in 10.0 mi WSW 16.1 mph 21.9 mph N/A   Clear
1:56 PM 66.9 °F - 27.0 °F 22% 29.87 in 10.0 mi West 13.8 mph - N/A   Partly Cloudy
2:56 PM 66.9 °F - 19.9 °F 17% 29.86 in 10.0 mi WNW 17.3 mph 28.8 mph N/A   Clear
3:56 PM 66.0 °F - 17.1 °F 15% 29.88 in 10.0 mi NW 20.7 mph 29.9 mph N/A   Clear
4:56 PM 62.1 °F - 16.0 °F 17% 29.91 in 10.0 mi NW 15.0 mph - N/A   Clear
5:56 PM 55.0 °F - 16.0 °F 22% 29.96 in 10.0 mi NW 12.7 mph - N/A   Clear
6:56 PM 53.6 °F - 15.8 °F 22% 30.04 in 10.0 mi NNW 15.0 mph - N/A   Clear
7:56 PM 52.0 °F - 15.1 °F 23% 30.01 in 10.0 mi WNW 12.7 mph - N/A   Clear
8:56 PM 48.0 °F - 14.0 °F 26% 30.02 in 10.0 mi NNW 8.1 mph - N/A   Clear
9:56 PM 44.1 °F 38.6 °F 14.0 °F 30% 30.01 in 10.0 mi North 10.4 mph - N/A   Clear
10:56 PM 43.0 °F - 14.0 °F 31% 30.02 in 10.0 mi Calm Calm - N/A   Clear
11:56 PM 46.9 °F - 17.1 °F 30% 30.01 in 10.0 mi NNW 9.2 mph - N/A   Clear